sat.trackr.live / text

‹ back to catalog

STARLINK-35182

NORAD 65504 · 2025-198N

PAYLOAD ACTIVE UNKNOWN

§ Identity

Operator
Country
US
Launch date
2025-09-05
Launch site
AFETR
Launch vehicle
Mass (kg)
RCS (m²)

Purposes: comms

External: N2YO · Heavens-Above · Gunter

§ Orbital elements

Epoch: 2026-09-20T21:09:51.021792Z

Period
93.85 min
Inclination
53.1575°
Eccentricity
0.0001164
Mean motion
15.34413173 rev/d
Perigee alt
461.9 km
Apogee alt
463.5 km
Semi-major
6,840.8 km
B*
6.2946e-4
RAAN
80.1810°
Arg perigee
73.9565°
Mean anomaly
286.1566°
Rev number
5,856

§ Raw data

STARLINK-351821 65504U 25198N   26263.88184053  .00020960  00000+0  62946-3 0  99972 65504  53.1575  80.1810 0001164  73.9565 286.1566 15.34413173 58563

JSON: /api/v1/satellites/65504 · /tle

For live sub-satellite position, see the globe view (requires WebGL).

§ Visibility from observer

Set your observer location to see the next 7 days of passes ≥ 10°. The values pass through the URL so the page stays shareable.

No JS? Fill the form by hand. The geolocation button needs JavaScript.